Weather History for Paris Le Bourget, France

Change the Weather History Date:

Tuesday, November 6, 2012

  Actual Average Record
Temperature  
Mean Temperature 43 °F -  
Max Temperature 51 °F 48 °F 60 °F (1996)
Min Temperature 35 °F 38 °F 35 °F (2003)
Degree Days  
Heating Degree Days 22    
Moisture  
Dew Point 39 °F    
Average Humidity 83    
Maximum Humidity 100    
Minimum Humidity 58    
Precipitation  
Precipitation 0.00 in 0.07 in - ()
Sea Level Pressure  
Sea Level Pressure 30.14 in    
Wind  
Wind Speed 4 mph ()    
Max Wind Speed 8 mph    
Max Gust Speed -    
Visibility 5.6 miles    
Events Fog    
Averages and records for this station are not official NWS values.
T = Trace of Precipitation, MM = Missing Value Source: Averaged Metar Reports

Daily Weather History Graph

Daily Weather History Graph

Search for Another Location

Airport:

Trip Planner

Search our weather history database for the weather conditions in past years. The results will help you decide how hot, cold, wet, or windy it might be!

Date:

Astronomy

Nov. 06, 2012 Rise Set
Actual Time 7:45 AM CET 5:21 PM CET
Civil Twilight 7:12 AM CET 5:55 PM CET
Nautical Twilight 6:34 AM CET 6:32 PM CET
Astronomical Twilight 5:57 AM CET 7:09 PM CET
Moon 11:49 PM CET (11/6) 1:26 PM CET (11/6)
Length of Visible Light 10h 42m
Length of Day
9h 35m
Waning Gibbous, 56% of the Moon is Illuminated
Nov 6
Waning Gibbous
Nov 7
Last Quarter
Nov 13
New
Nov 20
First Quarter
Nov 28
Full

Hourly Weather History & Observations

Time (CET) Temp. Windchill Dew Point Humidity Pressure Visibility Wind Dir Wind Speed Gust Speed Precip Events Conditions
12:00 AM 44.6 °F 43.1 °F 42.8 °F 93% 29.92 in 6.2 mi NNW 3.5 mph - N/A   Overcast
12:30 AM 44.6 °F 43.1 °F 42.8 °F 93% 29.95 in 6.2 mi Variable 3.5 mph - N/A   Mostly Cloudy
1:00 AM 42.8 °F - 41.0 °F 93% 29.95 in 6.2 mi Variable 2.3 mph - N/A   Mostly Cloudy
1:30 AM 42.8 °F - 41.0 °F 93% 29.95 in 6.2 mi NW 2.3 mph - N/A   Unknown
2:00 AM 42.8 °F - 41.0 °F 93% 29.95 in 6.2 mi Variable 2.3 mph - N/A   Overcast
2:30 AM 41.0 °F 39.0 °F 39.2 °F 93% 29.98 in 6.2 mi North 3.5 mph - N/A   Partly Cloudy
3:00 AM 41.0 °F 39.0 °F 39.2 °F 93% 29.98 in 6.2 mi North 3.5 mph - N/A   Unknown
3:30 AM 41.0 °F 38.0 °F 39.2 °F 93% 30.01 in 6.2 mi North 4.6 mph - N/A   Unknown
4:00 AM 41.0 °F 37.1 °F 39.2 °F 93% 30.01 in 6.2 mi North 5.8 mph - N/A   Unknown
4:30 AM 39.2 °F 35.0 °F 37.4 °F 93% 30.01 in 6.2 mi North 5.8 mph - N/A   Unknown
5:00 AM 39.2 °F 37.0 °F 37.4 °F 93% 30.01 in 6.2 mi North 3.5 mph - N/A   Unknown
5:30 AM 37.4 °F - 35.6 °F 93% 30.04 in 6.2 mi Calm Calm - N/A   Unknown
6:00 AM 35.6 °F - 35.6 °F 100% 30.06 in 6.2 mi Variable 1.2 mph - N/A   Unknown
6:30 AM 37.4 °F - 35.6 °F 93% 30.06 in 5.0 mi Calm Calm - N/A   Unknown
7:00 AM 35.6 °F - 35.6 °F 100% 30.06 in 0.3 mi Calm Calm - N/A Fog Fog
7:30 AM 35.6 °F - 35.6 °F 100% 30.09 in 0.2 mi South 1.2 mph - N/A Fog Patches of Fog
8:00 AM 35.6 °F - 35.6 °F 100% 30.09 in 0.3 mi Calm Calm - N/A Fog Patches of Fog
8:30 AM 35.6 °F 32.8 °F 35.6 °F 100% 30.12 in 1.7 mi WSW 3.5 mph - N/A   Partly Cloudy
9:00 AM 37.4 °F 32.8 °F 37.4 °F 100% 30.12 in 3.7 mi WSW 5.8 mph - N/A   Unknown
9:30 AM 41.0 °F 39.0 °F 39.2 °F 93% 30.12 in 5.0 mi SW 3.5 mph - N/A   Unknown
10:00 AM 42.8 °F 40.1 °F 41.0 °F 93% 30.15 in 6.2 mi West 4.6 mph - N/A   Unknown
10:30 AM 44.6 °F 43.1 °F 41.0 °F 87% 30.15 in 6.2 mi Variable 3.5 mph - N/A   Partly Cloudy
11:00 AM 46.4 °F 45.2 °F 42.8 °F 87% 30.18 in 6.2 mi NW 3.5 mph - N/A   Unknown
11:30 AM 48.2 °F - 42.8 °F 82% 30.18 in 6.2 mi Variable 3.5 mph - N/A   Partly Cloudy
12:00 PM 48.2 °F - 41.0 °F 76% 30.18 in 6.2 mi WNW 4.6 mph - N/A   Partly Cloudy
12:30 PM 50.0 °F - 41.0 °F 71% 30.18 in 6.2 mi WNW 4.6 mph - N/A   Partly Cloudy
1:00 PM 50.0 °F - 39.2 °F 66% 30.18 in 6.2 mi NW 5.8 mph - N/A   Partly Cloudy
1:30 PM 50.0 °F - 41.0 °F 71% 30.21 in 6.2 mi West 5.8 mph - N/A   Partly Cloudy
2:00 PM 51.8 °F - 42.8 °F 71% 30.21 in 6.2 mi WNW 4.6 mph - N/A   Mostly Cloudy
2:30 PM 51.8 °F - 39.2 °F 62% 30.21 in 6.2 mi WNW 6.9 mph - N/A   Mostly Cloudy
3:00 PM 51.8 °F - 41.0 °F 67% 30.21 in 6.2 mi West 8.1 mph - N/A   Mostly Cloudy
3:30 PM 51.8 °F - 41.0 °F 67% 30.21 in 6.2 mi West 6.9 mph - N/A   Mostly Cloudy
4:00 PM 51.8 °F - 39.2 °F 62% 30.21 in 6.2 mi WNW 5.8 mph - N/A   Mostly Cloudy
4:30 PM 51.8 °F - 39.2 °F 62% 30.24 in 6.2 mi WNW 6.9 mph - N/A   Mostly Cloudy
5:00 PM 50.0 °F - 35.6 °F 58% 30.24 in 6.2 mi WNW 5.8 mph - N/A   Unknown
5:30 PM 46.4 °F 44.3 °F 37.4 °F 71% 30.24 in 6.2 mi West 4.6 mph - N/A   Unknown
6:00 PM 46.4 °F 45.2 °F 37.4 °F 71% 30.24 in 6.2 mi WSW 3.5 mph - N/A   Unknown
6:30 PM 46.4 °F 45.2 °F 37.4 °F 71% 30.24 in 6.2 mi SW 3.5 mph - N/A   Unknown
7:00 PM 44.6 °F 42.2 °F 37.4 °F 76% 30.27 in 6.2 mi West 4.6 mph - N/A   Unknown
7:30 PM 44.6 °F 41.4 °F 37.4 °F 76% 30.27 in 6.2 mi West 5.8 mph - N/A   Unknown
8:00 PM 42.8 °F 39.3 °F 37.4 °F 81% 30.27 in 6.2 mi WSW 5.8 mph - N/A   Unknown
8:30 PM 42.8 °F 38.6 °F 39.2 °F 87% 30.27 in 6.2 mi WSW 6.9 mph - N/A   Unknown
9:00 PM 44.6 °F 40.7 °F 39.2 °F 81% 30.27 in 6.2 mi WSW 6.9 mph - N/A   Overcast
9:30 PM 44.6 °F 42.2 °F 39.2 °F 81% 30.27 in 6.2 mi WSW 4.6 mph - N/A   Overcast
10:00 PM 44.6 °F 42.2 °F 39.2 °F 81% 30.27 in 6.2 mi West 4.6 mph - N/A   Overcast
10:30 PM 44.6 °F 42.2 °F 39.2 °F 81% 30.27 in 6.2 mi WSW 4.6 mph - N/A   Unknown
11:00 PM 44.6 °F 41.4 °F 39.2 °F 81% 30.27 in 6.2 mi West 5.8 mph - N/A   Unknown
11:30 PM 46.4 °F 42.4 °F 39.2 °F 76% 30.27 in 6.2 mi WSW 8.1 mph - N/A   Overcast